This is the latest recevied weather packets stored in our database for station/object SQ5RTW-1. If no packets are shown the sender has not sent any weather packets the latest 10 day(s).
| Time | Temp. | Humidity | Pressure | Rain* | Wind** | Luminosity | Snow |
|---|---|---|---|---|---|---|---|
| 1777531594 | 6.67° C | 55% | 1033.8 hPa | - | - | - | - |
| 1777530693 | 7.22° C | 58% | 1033.8 hPa | - | - | - | - |
| 1777530676 | 7.78° C | 59% | 1033.8 hPa | - | - | - | - |
| 1777530651 | 5.56° C | 58% | 1033.9 hPa | - | - | - | - |
| 1777529750 | 5° C | 60% | 1033.7 hPa | - | - | - | - |
| 1777528850 | 4.44° C | 61% | 1033.6 hPa | - | - | - | - |
| 1777527949 | 5.56° C | 63% | 1033.7 hPa | - | - | - | - |
| 1777527932 | 6.11° C | 64% | 1033.6 hPa | - | - | - | - |
| 1777527846 | 3.89° C | 64% | 1033.7 hPa | - | - | - | - |
| 1777526945 | 4.44° C | 65% | 1033.6 hPa | - | - | - | - |
| 1777526928 | 5.56° C | 65% | 1033.6 hPa | - | - | - | - |
| 1777526903 | 2.78° C | 65% | 1033.7 hPa | - | - | - | - |
| 1777526002 | 2.22° C | 66% | 1033.6 hPa | - | - | - | - |
| 1777525102 | 1.11° C | 67% | 1033.6 hPa | - | - | - | - |
| 1777524201 | 0.56° C | 68% | 1033.4 hPa | - | - | - | - |
| 1777523300 | 0° C | 69% | 1033.5 hPa | - | - | - | - |
| 1777522399 | 0° C | 69% | 1033.5 hPa | - | - | - | - |
| 1777521498 | 0° C | 70% | 1033.5 hPa | - | - | - | - |
| 1777520597 | -0.56° C | 70% | 1033.5 hPa | - | - | - | - |
| 1777519696 | -0.56° C | 69% | 1033.3 hPa | - | - | - | - |
| 1777518796 | 0° C | 69% | 1033.3 hPa | - | - | - | - |
| 1777517895 | 0° C | 68% | 1033.1 hPa | - | - | - | - |
| 1777516994 | 0° C | 68% | 1033.1 hPa | - | - | - | - |
| 1777516093 | 0° C | 67% | 1032.9 hPa | - | - | - | - |
| 1777515192 | 0° C | 66% | 1032.8 hPa | - | - | - | - |
* Rain since midnight (hover to see other rain measurements)
** Current wind speed in m/s (hover to see current wind gust speed)